Location: Mount Cross
(36.6390°N, 79.4878°W)
Time: 12:18:08
(UTC+00:00)

Vanguard 3 - All Passes

Search period start: 26 March 2023 00:00
Search period end: 05 April 2023 00:00
Orbit: 508 x 3249 km, 33.4° (Epoch: 26 March)

Date Brightness Start Highest point End Pass type
(mag) Time Alt. Az. Time Alt. Az. Time Alt. Az.
26 Mar - 04:56:11 10° S 05:08:00 25° SE 05:21:48 10° E visible
26 Mar - 07:04:49 10° SW 07:22:04 55° SSE 07:40:19 10° E visible
26 Mar - 09:18:39 10° WSW 09:38:33 77° S 09:55:03 10° E visible
26 Mar - 11:35:32 10° W 11:55:03 75° SSW 12:07:53 10° ESE daylight
26 Mar - 13:53:45 10° W 14:08:57 45° SW 14:18:17 10° SSE daylight
26 Mar - 16:17:02 10° WSW 16:19:29 11° SW 16:21:43 10° SW daylight
27 Mar - 03:46:30 10° SE 03:51:21 12° SE 03:56:37 10° ESE visible
27 Mar - 05:49:11 10° SSW 06:03:56 41° SE 06:21:23 10° E visible
27 Mar - 08:00:45 10° WSW 08:19:23 70° SSE 08:37:38 10° E visible
27 Mar - 10:16:12 10° W 10:36:23 80° S 10:51:36 10° E visible
27 Mar - 12:33:44 10° W 12:51:58 62° SSW 13:03:29 10° SE daylight
27 Mar - 14:53:00 10° W 15:04:11 26° SW 15:11:51 10° S daylight
28 Mar - 04:35:07 10° S 04:46:38 26° SE 05:00:53 10° E visible
28 Mar - 06:43:58 10° SW 07:00:33 58° SSE 07:19:25 10° E visible
28 Mar - 08:57:35 10° WSW 09:17:09 79° S 09:34:36 10° E visible
28 Mar - 11:14:05 10° W 11:33:56 74° SSW 11:47:47 10° ESE daylight
28 Mar - 13:32:12 10° W 13:48:04 43° SW 13:58:14 10° SSE daylight
28 Mar - 15:56:55 10° WSW 15:58:49 10° SW 16:00:34 10° SW daylight
29 Mar - 03:24:27 10° SSE 03:30:11 13° SE 03:36:41 10° ESE visible
29 Mar - 05:28:23 10° SSW 05:42:26 43° SE 06:00:15 10° E visible
29 Mar - 07:39:54 10° WSW 07:57:51 72° SSE 08:16:50 10° E visible
29 Mar - 09:55:00 10° W 10:15:03 80° S 10:31:16 10° E visible
29 Mar - 12:12:10 10° W 12:30:53 60° SSW 12:43:22 10° SE daylight
29 Mar - 14:31:39 10° W 14:43:18 25° SW 14:51:34 10° S daylight
30 Mar - 04:14:15 10° S 04:25:18 28° SE 04:39:42 10° E visible
30 Mar - 06:23:15 10° SW 06:39:00 60° SSE 06:58:19 10° E visible
30 Mar - 08:36:38 10° WSW 08:55:40 80° S 09:13:58 10° E visible
30 Mar - 10:52:42 10° W 11:12:39 72° SSW 11:27:31 10° ESE daylight
30 Mar - 13:10:37 10° W 13:27:00 41° SW 13:38:02 10° SSE daylight
31 Mar - 03:02:58 10° SSE 03:09:02 14° SE 03:16:11 10° E visible
31 Mar - 05:07:45 10° SSW 05:21:00 46° SE 05:38:54 10° E visible
31 Mar - 07:19:10 10° WSW 07:36:19 74° SSE 07:55:52 10° E visible
31 Mar - 09:33:53 10° W 09:53:35 79° S 10:10:46 10° ESE visible
31 Mar - 11:50:39 10° W 12:09:38 58° SSW 12:23:05 10° SE daylight
31 Mar - 14:10:17 10° W 14:22:16 24° SW 14:31:05 10° S daylight
01 Apr - 03:53:34 10° S 04:04:00 30° SE 04:18:21 10° E visible
01 Apr - 06:02:41 10° SW 06:17:30 63° SSE 06:37:01 10° E visible
01 Apr - 08:15:47 10° W 08:34:07 80° S 08:53:09 10° E visible
01 Apr - 10:31:23 10° W 10:51:13 71° SSW 11:07:04 10° ESE visible
01 Apr - 12:49:04 10° W 13:05:45 40° SW 13:17:36 10° SSE daylight
02 Apr - 02:41:51 10° SSE 02:47:55 15° SE 02:55:21 10° E night (unlit)
02 Apr - 04:47:14 10° SW 04:59:37 48° SE 05:17:24 10° E visible
02 Apr - 06:58:33 10° WSW 07:14:46 76° SSE 07:34:43 10° E visible
02 Apr - 09:12:51 10° W 09:32:02 78° S 09:50:04 10° ESE visible
02 Apr - 11:29:11 10° W 11:48:11 55° SSW 12:02:35 10° SE daylight
02 Apr - 13:48:57 10° W 14:01:03 23° SW 14:10:22 10° S daylight
03 Apr - 03:33:00 10° SSW 03:42:47 31° SE 03:56:50 10° E visible
03 Apr - 05:42:14 10° SW 05:56:04 65° SSE 06:15:34 10° E visible
03 Apr - 07:55:03 10° W 08:12:32 81° S 08:32:08 10° E visible
03 Apr - 10:10:09 10° W 10:29:39 69° SSW 10:46:24 10° ESE visible
03 Apr - 12:27:34 10° W 12:44:20 38° SW 12:56:57 10° SSE daylight
04 Apr - 02:20:58 10° SSE 02:26:52 16° SE 02:34:18 10° E night (unlit)
04 Apr - 04:26:50 10° SW 04:38:19 49° SSE 04:55:45 10° E visible
04 Apr - 06:38:02 10° WSW 06:53:16 77° S 07:13:22 10° E visible
04 Apr - 08:51:55 10° W 09:10:24 77° S 09:29:10 10° ESE visible
04 Apr - 11:07:48 10° W 11:26:36 53° SSW 11:41:52 10° SE daylight
04 Apr - 13:27:42 10° W 13:39:43 21° SW 13:49:22 10° S daylight
